Location: Bambrugge
(50.9212°N, 3.9299°E)
Time: 03:16:33
(UTC+00:00)

Helios 1A Rocket - Pass Details

Date: 23 May 2024
Orbit: 520 x 543 km, 98.3° (Epoch: 17 June)

Event Time Altitude Azimuth Distance (km) Brightness Sun altitude
Exits shadow 01:44:14 18° 242° (WSW) 1,363 4.3 -13.5°
Maximum altitude 01:45:24 20° 267° (W) 1,266 4.4 -13.4°
Drops below altitude 10° 01:48:20 10° 316° (NW) 1,795 5.6 -13.1°
Sets 01:50:53 0° 333° (NNW) 2,686 6.8 -12.9°
